Вернуться в каталог

PSLV DEB

АктивенSSO
NORAD 27305·DEBRIS·🇮🇳 India

Запущен Oct 22, 2001 с Satish Dhawan Space Centre

Loading…

Ближайшие Пролёты (ближайшие 24 часа)

TLE

СвежийSource: Space-Track

Эпоха: Sep 14, 2026, 15:37 UTC

1 27305U 01049KB  26257.65137049  .00000985  00000-0  13561-3 0  9999
2 27305  98.2002 320.7855 0037250 200.6958 320.2906 14.80209727326673

Отслеживайте PSLV DEB в реальном времени с AllMySat

Download on the App Store